Theta_e
310 310 309 309 309 309 309 311 312 312 313 317 319 321 322 321 320 319 320 320 320 319 317 316 315 317 317 317 318 319 320 319 319 319 318 317 316 312 309 309 307 304
311 310 310 309 310 308 308 310 310 310 314 317 320 322 321 319 318 319 320 320 318 317 315 314 315 316 317 318 319 318 318 318 318 318 317 316 315 312 310 310 307 304
312 311 310 310 310 309 308 309 308 311 316 319 320 320 318 317 318 319 319 318 316 314 313 314 315 316 317 319 319 318 317 317 316 316 316 315 313 311 310 310 307 304
312 311 310 310 310 309 308 308 307 310 316 320 319 316 314 316 318 319 318 317 315 313 313 314 316 316 317 318 318 317 316 316 316 315 315 314 312 310 310 309 306 303
311 311 311 310 310 309 308 308 307 309 315 318 315 313 314 317 318 318 317 316 315 314 313 314 315 316 317 317 317 316 315 315 315 314 313 311 311 310 310 309 306 303
311 311 311 311 310 309 308 307 306 307 311 313 311 312 316 318 316 315 316 316 316 315 313 313 314 315 317 317 316 316 315 314 314 313 312 311 310 310 310 309 306 301
312 311 311 311 310 309 308 307 306 306 308 310 311 313 315 314 313 314 315 315 315 314 313 313 313 315 316 316 316 315 314 314 313 311 310 310 310 310 309 308 304 300
311 311 311 311 310 309 308 307 306 307 308 310 313 314 312 311 313 314 314 313 313 314 314 313 313 315 315 315 315 314 314 313 310 306 304 306 307 308 308 306 302 298
312 311 311 311 310 309 308 307 307 308 308 310 312 313 312 313 314 314 314 312 311 313 314 312 312 314 314 314 314 314 314 312 306 299 298 300 304 306 306 304 300 296
313 312 312 311 310 309 308 308 308 308 309 309 310 312 313 314 314 313 312 311 311 313 313 312 311 312 312 313 313 313 313 309 301 296 297 300 303 304 303 301 297 294
314 313 312 311 310 309 308 308 308 308 309 309 310 311 313 314 314 313 311 310 311 313 313 311 310 310 310 311 311 312 312 307 298 294 296 299 301 302 300 298 295 294
316 314 313 312 310 309 309 308 308 308 308 308 309 311 313 314 314 312 311 310 311 312 312 310 310 309 309 309 310 310 311 308 299 293 295 297 299 299 297 295 294 293
316 315 314 312 311 309 309 308 308 308 308 308 309 311 313 313 313 312 310 310 311 312 311 310 310 309 309 309 309 310 311 309 301 294 294 295 296 296 294 293 293 293
316 315 314 312 311 309 308 308 307 308 308 308 309 310 312 312 311 310 309 309 311 311 310 309 309 309 308 308 308 309 309 309 304 295 292 294 294 293 293 292 293 292
315 314 314 312 311 309 308 308 307 308 309 309 309 310 311 311 310 309 308 309 310 310 309 308 307 307 308 307 308 309 308 306 303 295 292 293 293 292 293 292 292 292
314 314 313 312 311 309 308 307 307 307 309 309 310 310 311 310 310 309 309 309 310 309 308 307 307 307 308 308 308 308 306 303 300 294 292 293 292 292 292 292 292 291
314 313 313 312 310 309 307 307 307 307 308 309 310 310 311 310 310 310 309 309 309 309 308 308 308 307 307 307 307 307 304 301 298 293 291 292 292 292 292 292 291 291
313 313 312 311 310 309 307 306 306 307 307 308 310 310 310 310 309 308 309 308 308 308 308 308 308 307 306 306 305 305 302 299 295 292 291 292 292 292 292 292 291 290
313 313 312 311 310 308 307 306 306 306 307 307 309 310 309 309 308 307 307 307 307 307 308 308 307 306 306 304 304 304 301 296 292 291 291 291 291 291 291 291 290 290
313 313 312 311 309 308 306 306 305 305 306 307 308 308 308 308 307 306 306 307 307 307 307 307 306 305 305 303 301 301 298 294 291 290 291 291 291 291 291 290 290 289
313 312 311 310 309 308 306 306 305 305 305 306 307 307 307 306 306 305 306 306 306 306 306 306 305 304 303 301 299 298 295 291 290 290 290 290 290 290 290 289 289 289
312 311 310 309 308 307 306 305 304 304 304 305 305 306 306 305 304 304 305 305 306 306 305 304 304 302 300 298 297 294 291 289 289 289 289 289 289 289 289 289 290 291
311 310 309 308 307 306 305 304 303 303 303 304 304 305 305 305 304 304 305 305 305 304 304 303 301 300 297 296 295 292 289 288 289 289 288 289 289 289 289 289 290 291
309 308 306 306 305 304 303 303 302 302 302 302 303 304 304 304 304 304 304 304 304 303 302 299 298 296 295 294 294 291 288 288 288 288 288 288 288 288 289 289 290 290
307 306 305 304 303 303 302 302 301 301 301 301 302 303 303 303 304 303 303 302 301 301 299 296 295 294 292 292 292 290 288 288 288 288 287 287 287 288 288 288 289 290
306 305 304 303 303 302 301 301 300 300 300 300 301 301 302 302 302 301 301 300 300 299 297 295 293 291 290 289 289 288 288 287 287 287 286 287 287 287 287 288 289 290
Wind_Speed
33 35 35 37 37 36 37 36 36 35 34 35 36 36 36 35 35 36 36 35 34 34 33 32 35 36 36 37 39 41 42 42 41 41 42 39 33 30 30 28 27 27
33 34 35 36 36 36 37 38 37 35 34 34 35 38 37 34 33 34 34 33 32 30 31 33 35 36 36 37 38 39 40 41 42 42 40 37 33 32 31 29 28 28
30 32 34 36 36 35 36 37 36 34 34 35 37 38 37 33 33 35 34 31 28 27 29 33 36 37 37 36 35 35 36 37 37 38 38 36 34 33 32 30 29 28
28 30 32 35 35 33 34 35 35 34 36 38 39 38 36 34 35 34 32 29 27 27 29 32 35 37 38 37 36 35 35 35 34 35 36 36 35 34 33 32 30 30
27 28 30 32 32 32 33 33 34 35 37 40 39 36 35 34 33 31 30 30 30 28 28 31 34 36 38 39 37 35 34 33 34 34 35 36 36 35 34 33 32 31
26 27 29 31 29 30 32 32 33 35 37 38 36 34 34 33 31 31 31 31 32 30 29 31 33 35 38 40 38 37 36 34 34 35 37 37 37 36 35 34 32 31
25 27 28 28 26 28 30 31 32 34 35 35 33 33 34 33 32 32 31 30 30 31 29 31 34 35 37 39 38 37 36 35 35 36 38 40 38 37 35 35 33 31
24 26 26 25 24 27 29 31 32 33 33 33 33 33 32 32 32 32 30 27 29 32 31 31 34 35 35 37 38 38 37 35 36 37 39 39 38 37 36 35 33 32
24 25 25 24 24 27 29 31 32 32 32 33 34 33 32 32 32 30 28 29 31 33 34 33 34 35 34 35 38 39 38 37 37 37 37 37 37 36 36 36 34 33
24 25 25 25 25 27 29 31 32 31 31 32 33 34 34 33 32 29 29 31 33 35 35 34 34 34 33 33 34 35 35 36 37 36 36 36 36 37 37 36 35 33
24 25 26 26 25 27 29 31 32 31 31 31 32 34 35 35 33 30 29 31 33 34 34 33 33 34 34 35 33 32 32 34 35 35 35 35 36 36 36 35 34 33
25 26 26 26 25 27 29 31 32 32 32 31 32 33 33 34 33 30 29 31 32 32 31 30 30 31 34 36 35 33 32 33 35 34 34 35 36 35 35 34 33 31
27 26 26 26 26 26 27 29 31 33 33 32 32 33 32 33 32 30 31 33 33 33 32 29 27 28 31 34 36 35 33 33 35 35 34 34 35 34 33 33 31 28
28 27 26 26 26 26 26 27 30 32 33 32 31 33 33 32 31 30 31 33 34 35 33 29 28 28 29 33 37 38 35 34 35 35 35 34 33 33 32 30 28 26
29 28 28 27 26 26 25 26 29 31 32 32 32 32 32 31 30 30 31 33 33 34 32 29 30 31 31 33 37 38 36 35 35 35 35 34 33 32 31 29 28 26
30 30 29 27 26 26 25 26 28 30 31 32 32 32 32 32 31 30 31 32 32 31 29 29 30 31 31 33 35 35 35 36 36 35 34 34 33 32 31 29 27 25
31 31 30 27 26 25 25 26 28 29 30 31 32 32 32 31 30 31 31 32 32 31 29 30 31 30 29 31 31 32 34 36 36 36 35 34 32 31 30 29 27 25
32 31 30 28 27 26 25 26 28 28 29 32 33 32 32 31 31 32 31 31 33 33 32 32 31 28 27 28 29 30 33 35 37 36 35 33 31 30 29 28 26 25
33 32 31 29 27 26 24 25 27 28 30 32 32 31 31 30 30 32 32 31 30 30 30 31 30 27 26 27 28 30 33 35 36 35 33 32 31 30 28 26 25 24
34 33 31 30 27 26 24 25 26 28 29 31 30 30 30 29 29 30 32 31 28 27 29 29 28 25 25 26 28 31 33 34 35 33 32 31 29 28 27 25 24 23
34 32 31 30 28 27 25 25 25 26 28 29 29 29 29 28 27 28 30 30 29 28 28 27 25 24 24 25 28 30 32 34 34 33 31 29 27 26 24 23 22 21
32 31 30 30 28 27 25 25 24 25 26 27 28 28 27 25 25 26 28 29 29 27 25 23 22 22 23 24 27 31 34 35 35 33 30 28 26 25 24 22 21 19
30 29 29 28 27 26 24 23 22 22 23 25 26 26 26 23 22 23 25 26 25 22 21 20 20 21 22 24 28 32 35 35 33 31 29 27 26 26 25 23 20 19
27 26 26 26 24 23 21 19 19 19 20 21 23 24 25 23 21 21 22 23 21 19 18 18 18 19 21 24 28 31 33 33 32 30 29 27 26 25 23 21 19 19
25 23 23 22 20 19 17 16 16 17 17 18 20 22 23 23 22 20 19 18 17 16 16 16 16 18 20 23 26 29 31 31 31 30 29 28 26 24 21 20 19 21
22 21 20 20 18 17 16 16 15 15 15 17 18 19 20 20 20 18 16 14 14 14 14 15 16 18 20 22 24 27 29 30 30 28 27 26 25 23 21 20 22 25
Wind_Direction
249 248 248 247 248 247 244 240 235 234 236 234 232 230 230 234 240 244 246 244 246 250 252 256 249 236 233 239 238 234 226 218 218 221 224 229 234 231 222 225 228 224
250 249 249 249 248 246 243 240 236 235 235 234 231 231 235 240 243 244 244 244 247 251 255 254 244 233 233 236 232 227 223 221 222 223 227 232 231 227 223 224 227 225
252 250 250 251 250 247 244 242 239 234 232 232 232 235 239 239 242 244 242 241 246 253 256 250 236 229 232 230 222 220 222 224 228 230 232 232 227 224 223 223 225 225
257 254 250 250 251 250 246 244 241 234 229 231 235 239 238 236 240 243 238 239 247 250 250 245 233 229 232 227 219 222 226 228 233 235 231 228 224 223 223 222 224 224
261 257 253 252 252 249 247 244 241 235 230 233 237 237 235 236 238 239 238 243 245 242 242 243 237 232 230 227 225 230 231 229 232 232 227 224 223 223 223 222 223 224
265 261 258 258 254 249 246 244 242 237 232 233 234 232 232 234 236 237 240 243 239 235 237 241 242 238 230 226 230 233 232 230 232 229 225 224 224 225 224 222 222 224
269 266 265 264 257 250 247 245 241 237 233 231 229 230 232 234 236 238 237 237 236 235 236 239 243 242 232 227 230 233 231 231 233 231 227 225 225 225 223 221 222 222
271 269 269 266 257 250 246 244 241 237 232 227 226 229 232 232 234 234 233 237 242 239 235 238 241 241 238 233 233 236 236 234 232 230 228 226 224 222 220 220 221 220
275 272 271 265 255 249 246 244 241 237 231 226 225 226 228 230 231 232 234 242 246 239 232 234 238 239 239 237 234 234 237 234 230 228 227 224 220 218 218 219 220 218
276 274 271 266 256 248 246 244 240 235 230 226 225 225 227 230 230 230 235 241 243 237 228 228 234 237 239 240 237 236 235 232 228 227 226 222 219 218 218 219 220 217
272 271 270 266 259 249 244 242 238 233 229 227 226 227 231 232 230 229 235 241 242 235 226 225 231 235 240 243 244 244 240 232 228 228 226 222 220 220 220 220 219 217
268 268 267 266 261 253 247 243 237 232 229 228 227 228 232 233 231 233 238 243 241 230 225 229 230 233 240 244 246 247 242 234 229 228 226 224 222 221 221 221 219 217
266 266 266 265 262 257 252 246 240 234 229 228 227 227 230 232 233 237 238 241 239 229 226 235 237 237 242 245 246 246 241 234 229 227 226 224 222 221 220 219 218 217
265 265 264 263 261 258 253 247 243 236 229 226 226 226 229 233 237 240 239 240 239 232 231 242 247 246 246 246 246 245 240 235 230 226 224 222 220 219 218 217 216 214
263 263 263 261 260 257 252 246 243 237 228 224 224 226 229 233 237 239 241 244 240 233 237 250 255 252 249 247 246 242 238 233 229 225 223 221 219 218 215 214 213 210
261 261 262 261 259 257 253 246 242 237 228 223 225 227 229 233 235 237 240 243 240 238 246 257 257 253 250 247 244 239 234 230 227 224 223 221 220 217 214 212 210 209
260 260 261 261 258 255 251 246 242 237 230 225 225 227 231 235 238 239 241 241 240 241 248 255 255 253 248 244 238 233 230 228 226 223 221 220 219 218 215 213 211 209
259 260 262 261 258 254 249 245 243 238 230 226 226 229 233 237 240 243 246 246 243 241 244 251 257 256 248 240 233 228 227 226 225 223 221 220 218 217 216 216 213 211
258 258 259 260 258 255 250 245 242 236 230 227 228 231 235 238 241 243 247 250 248 245 247 253 257 255 246 237 229 225 224 223 223 223 222 221 219 217 216 215 213 211
257 256 256 257 258 255 249 244 240 235 230 228 229 232 235 240 244 244 246 249 249 248 250 253 254 251 243 234 227 223 221 221 221 221 221 221 220 218 216 213 211 212
258 256 256 256 256 253 248 243 240 235 229 227 228 232 235 241 247 248 246 247 249 251 252 252 250 246 239 232 225 221 219 218 218 218 218 218 216 215 213 210 211 218
257 255 254 254 253 251 246 242 239 234 228 224 226 230 234 240 247 247 245 246 249 252 252 248 246 243 237 229 222 217 216 216 216 216 215 214 212 209 207 208 218 232
254 252 250 250 250 247 244 241 239 233 226 223 225 228 231 238 244 244 243 248 252 249 244 242 241 239 232 223 217 215 214 215 215 215 214 212 210 208 210 216 228 242
252 249 248 248 246 244 243 240 237 232 226 222 223 226 230 236 243 245 246 249 249 243 238 237 236 233 227 221 216 215 214 215 216 216 214 211 208 210 215 222 233 247
250 247 244 243 241 240 238 235 231 228 223 221 222 226 231 236 242 247 249 247 243 238 233 230 226 224 222 218 215 214 214 215 216 216 213 209 208 212 218 225 239 256
245 242 238 236 233 230 227 224 221 217 214 216 220 226 232 237 242 245 245 238 232 228 225 220 216 214 214 214 213 213 215 216 216 215 213 211 212 215 222 234 250 264